星链-1887 (STARLINK-1887 )

导读

STARLINK-1887是美国太空探索技术公司SpaceX星链(STARLINK)卫星互联网项目的卫星,于2020年11月25日发射升空,属于星链低轨通信卫星星座组网环节的一颗卫星,星链星座旨在为全球提供高速卫星互联网接入服务,该卫星进入近地轨道后承担通信信号转发任务。

基本信息
目录编号:
47170
目录名称:
STARLINK-1887
国际标识:
2020-088BA
轨道中心:
EARTH
卫星名称:
星链-1887
卫星全名:
星链-1887 (STARLINK-1887 )
卫星状态:
已陨落 最后检测时间 2025-01-28
发射日期:
2020-11-25 UTC
国别 :
美国 (US)
星等 :
--
该卫星已列入 空间交会检测服务 Space Conjunction Data Service (SCDS) ,当前飞行风险评估等级: 无高风险
轨道信息
数据来源 国际轨道数据
星历时间: 2025-01-28T20:50:37+0800
轨道信息已过期591天
半长轴: 6529.743km
偏心率: 0.0004671
轨道倾角: 53.032°
近地点辐角 250.620°
升交点赤经 288.057°
平近点角 250.852°
近地点: 148.557km
远地点: 154.659km
周期: 87.519分钟
每日圈数: 16.453516
详细信息
固有亮度:
5
最大亮度:
2.5
卫星平台:
Starlink V1.0
覆盖范围:
全球
运营商:
太空探索技术公司
运营商所在国:
美国
制造商(研发单位):
太空探索技术公司
制造商所在国:
美国
使用方式:
暂无
卫星简介
星链(Starlink)计划是由太空探索技术公司(SpaceX)提出的一个巨型低轨卫星互联网星座项目,计划在2019年至2024年间在太空搭建由约1.2万颗卫星组成的“星链”网络,其中1584颗将部署在地球上空550千米处的近地轨道,并从2020年开始工作。该卫星仍在工作。
与全量物体交会距离演化趋势
与全量物体交会风险概率演化趋势